Temperature
16 17 17 17 17 17 17 17 17 17 18 18 18 18 18 19 19 19 19 18 18 18 18 18 18 18 18 18 18 18 18 18 18 18 18 18 18 18 18 18 18 17 17
16 16 16 17 17 17 17 17 17 17 18 18 18 18 18 19 19 19 19 19 18 18 18 18 18 18 18 18 18 18 18 18 18 18 18 18 18 18 18 18 17 17 17
16 16 16 16 16 17 17 17 17 17 17 18 18 18 18 18 19 19 19 19 18 18 18 18 18 18 18 18 18 18 18 18 18 18 18 18 18 18 18 17 17 17 17
15 15 15 16 16 16 16 16 17 17 17 17 18 18 18 18 18 19 19 18 18 18 18 18 18 18 18 18 18 18 18 18 18 18 18 18 18 17 17 17 17 17 17
15 15 15 15 15 16 16 16 16 17 17 17 17 17 18 18 18 18 18 18 18 18 18 18 18 18 18 18 18 18 18 18 18 18 18 17 17 17 17 17 17 17 17
14 14 15 15 15 15 15 16 16 16 16 17 17 17 17 18 18 18 18 19 19 18 18 18 18 18 18 18 18 18 18 18 18 18 17 17 17 17 17 17 17 17 17
14 14 14 14 15 15 15 15 16 16 16 16 16 16 17 17 18 18 18 18 19 19 18 18 18 18 18 18 18 18 18 18 18 17 17 17 17 17 17 17 17 17 17
13 14 14 14 14 14 15 15 15 15 16 16 16 16 16 17 17 18 18 18 19 18 18 18 18 18 18 18 18 18 18 18 18 17 17 17 17 17 17 17 17 17 17
13 13 14 14 14 14 14 15 15 15 15 15 16 16 16 16 17 17 18 18 18 19 19 18 18 18 18 18 18 18 18 18 18 18 17 17 17 17 17 17 17 17 17
13 13 13 13 14 14 14 14 14 15 15 15 15 15 16 16 16 17 17 18 18 18 18 18 18 18 18 18 18 18 18 18 18 18 17 17 17 17 17 17 17 17 16
13 13 13 13 13 13 14 14 14 14 15 15 15 15 15 15 16 16 17 17 17 18 18 18 18 18 18 18 18 18 18 18 18 18 17 17 17 17 17 17 17 16 16
12 13 13 13 13 13 13 14 14 14 14 15 15 15 15 15 16 16 16 17 17 17 18 18 18 18 18 18 18 17 18 18 18 17 17 17 17 17 17 17 17 16 16
12 12 12 13 13 13 13 13 14 14 14 14 14 15 15 15 15 16 16 16 16 17 17 17 17 18 18 18 17 17 17 17 17 17 17 17 17 17 17 17 16 16 16
12 12 12 12 12 13 13 13 13 14 14 14 14 14 14 15 15 15 15 15 15 16 16 17 17 17 17 17 17 17 17 17 17 17 17 17 17 17 16 16 16 16 16
12 12 12 12 12 13 13 13 13 13 14 14 14 14 14 14 15 15 15 15 15 15 16 16 17 17 17 17 17 17 17 17 17 17 17 17 17 16 16 16 16 16 16
12 12 12 12 12 12 13 13 13 13 13 14 14 14 14 14 14 14 15 15 15 15 15 16 16 16 16 16 16 17 17 16 17 17 17 17 16 16 16 16 16 16 16
12 12 12 12 12 12 12 12 13 13 13 13 13 13 14 14 14 14 14 14 15 15 15 15 15 16 16 16 16 16 16 16 16 16 16 16 16 16 16 16 16 15 15
11 12 12 12 12 12 12 12 12 13 13 13 13 13 13 13 14 14 14 14 14 15 15 15 15 15 15 16 15 15 16 15 16 16 16 16 16 16 15 15 15 15 15
11 11 12 12 12 12 12 12 12 12 13 13 13 13 13 13 13 14 14 14 14 14 14 14 15 15 15 15 15 15 15 15 15 15 15 15 15 15 15 15 15 15 15
11 11 11 11 11 11 12 12 12 12 12 13 13 13 13 13 13 13 13 14 14 14 14 14 14 14 15 15 14 14 14 15 15 15 15 15 15 15 15 15 15 14 14
11 11 11 11 11 11 12 12 12 12 12 12 12 12 13 13 13 13 13 13 13 14 14 14 14 14 14 14 14 14 14 14 14 14 14 14 14 14 14 14 14 14 14
11 11 11 11 11 11 11 12 12 12 12 12 12 12 12 13 13 13 13 13 13 13 13 14 14 14 14 14 14 14 14 14 13 13 14 14 14 14 14 14 14 13 13
11 11 11 11 11 11 12 12 12 12 12 12 12 12 12 12 12 12 13 13 13 13 13 13 14 14 14 14 14 14 14 14 14 14 13 13 13 13 13 13 13 13 13
11 11 11 11 11 11 11 12 12 12 12 12 12 12 12 12 12 12 12 12 13 13 13 13 13 14 14 14 14 14 14 13 13 13 13 13 12 12 12 12 13 12 12
11 11 11 11 11 11 11 12 12 12 12 12 12 12 12 12 12 12 12 12 12 12 13 13 13 13 13 13 13 13 13 13 12 12 12 12 12 12 12 12 12 12 12
12 12 11 11 12 12 12 12 12 12 12 12 12 11 12 12 12 12 12 12 12 12 12 12 13 13 13 13 13 13 13 13 12 12 12 12 12 12 11 11 11 11 11
Wind_Speed
4 4 3 4 5 6 4 3 4 5 5 5 6 5 4 5 6 9 13 17 16 13 11 10 9 9 8 7 7 8 8 9 9 10 10 11 10 10 10 10 10 10 9
3 4 4 4 4 5 5 5 5 5 4 4 5 5 4 3 4 8 12 15 17 16 14 12 11 11 10 9 9 9 9 9 10 10 10 11 11 11 10 10 9 9 9
3 3 3 4 4 7 6 4 4 3 4 5 5 5 4 4 4 5 11 13 14 16 16 15 13 12 12 11 10 10 10 10 10 11 11 11 11 11 11 10 9 9 8
5 2 3 4 4 4 3 3 3 3 4 3 3 4 5 4 5 4 7 11 13 14 16 17 16 15 13 13 12 12 11 11 11 11 11 11 11 11 11 10 9 8 8
6 3 3 3 3 2 3 5 3 3 4 4 4 5 5 4 5 6 5 7 11 15 15 17 19 17 16 15 14 14 13 13 12 12 12 12 12 12 11 10 9 9 8
6 4 3 4 3 3 4 4 4 3 3 4 5 6 5 5 4 5 6 4 7 13 15 16 16 16 18 17 16 15 15 15 14 13 13 13 13 12 12 11 10 9 8
5 4 4 4 2 3 4 5 4 4 4 3 2 3 4 5 5 4 5 4 5 7 12 15 15 15 15 18 18 17 17 16 16 15 14 14 14 13 12 11 11 10 9
5 5 4 3 3 2 4 5 4 3 4 4 3 2 3 3 4 6 4 5 5 4 7 12 14 15 16 15 17 19 18 18 17 16 16 15 15 15 14 13 12 11 10
5 4 4 4 3 3 3 4 5 5 4 4 4 4 3 4 3 3 5 5 5 4 4 4 8 13 17 17 17 20 21 19 18 18 17 16 16 16 15 14 13 12 11
4 4 4 4 4 3 3 4 4 3 4 4 4 5 4 2 2 2 3 4 5 5 5 5 4 6 12 15 17 22 23 22 20 18 18 17 16 16 16 15 14 13 12
4 3 3 3 4 3 3 4 3 3 4 5 4 4 4 3 3 2 3 3 3 4 4 4 5 4 8 11 15 20 25 23 21 19 18 17 17 17 16 16 15 14 13
4 5 4 4 4 4 4 4 4 4 4 5 5 4 4 3 4 4 4 3 3 3 3 3 3 3 4 9 13 21 25 24 22 20 18 17 16 16 16 16 15 15 14
4 5 5 4 4 4 4 4 4 4 4 5 5 5 5 5 3 3 4 3 3 2 2 3 3 3 4 7 10 20 22 23 22 20 19 17 16 16 16 15 15 15 14
5 6 6 5 4 4 4 4 3 4 3 3 5 4 4 5 5 4 4 4 3 3 3 4 2 3 2 6 11 18 16 22 22 20 19 18 16 16 15 15 15 14 14
6 7 6 5 4 4 4 4 3 3 3 3 3 4 3 4 4 4 4 5 5 5 6 5 3 2 1 3 11 13 12 18 20 20 19 18 17 16 16 15 14 13 13
7 7 7 6 5 5 4 3 3 3 3 3 3 3 4 4 4 4 5 5 5 5 4 4 4 3 3 2 7 10 12 17 19 20 19 18 18 16 16 15 15 14 13
7 7 7 6 6 6 5 4 4 3 3 3 3 3 4 4 3 4 4 4 5 5 5 4 2 3 3 3 4 5 8 11 14 18 19 18 17 16 16 15 15 14 14
7 7 7 7 7 7 6 6 5 4 3 3 3 3 4 3 3 3 4 5 5 6 5 5 4 3 4 4 4 5 4 8 9 15 17 17 16 16 15 15 15 14 14
7 7 7 8 7 7 7 7 7 6 4 3 3 3 3 3 3 3 4 4 5 5 5 4 4 3 3 4 4 3 3 3 6 10 14 15 15 15 15 15 14 14 14
7 7 7 7 7 7 8 9 9 7 5 4 3 3 3 3 3 3 3 3 4 4 4 4 4 3 3 4 4 4 3 3 4 6 7 10 12 13 13 13 13 14 14
7 6 7 7 7 6 8 10 9 8 7 5 4 4 3 3 3 2 2 2 1 2 3 4 4 4 4 4 5 4 4 3 2 3 5 5 5 6 8 10 11 12 13
5 5 5 6 6 6 10 13 12 8 7 5 4 3 3 3 5 4 2 2 1 2 3 4 4 5 5 5 4 5 5 4 2 3 4 4 4 5 4 7 10 12 13
5 5 5 5 5 6 10 13 15 9 7 5 5 4 4 4 5 4 4 2 1 2 4 3 3 4 5 5 6 6 6 5 4 5 4 4 4 4 4 7 10 12 13
5 5 5 4 4 5 8 11 15 9 6 4 4 4 4 4 6 6 4 2 1 1 2 3 2 2 3 3 4 6 6 5 3 3 3 3 3 3 3 5 10 11 12
4 4 4 4 4 3 6 9 12 7 5 5 5 5 4 4 8 9 5 3 2 1 1 3 3 4 4 5 5 5 6 6 4 3 2 3 4 3 3 3 6 10 12
4 4 4 4 3 2 2 6 9 5 5 5 4 3 6 6 8 8 5 4 3 2 1 2 2 3 3 4 5 5 6 6 4 3 4 4 4 4 3 2 3 7 8
Wind_Direction
220 223 233 224 224 228 226 229 237 239 241 257 263 255 240 218 189 162 160 166 168 175 180 183 180 177 173 171 167 164 161 158 154 149 146 144 140 138 137 134 133 131 125
229 223 228 228 230 227 225 220 227 236 235 246 265 271 274 268 218 164 161 172 175 179 184 187 186 184 182 180 175 171 166 162 160 157 153 151 148 149 146 144 141 138 133
266 249 241 239 234 231 226 224 225 234 237 233 250 264 272 266 255 190 168 171 179 187 188 189 188 187 188 187 184 181 175 171 168 167 164 161 157 157 156 154 151 148 145
294 277 254 250 244 239 230 220 213 223 238 239 241 244 252 260 268 242 187 178 178 185 193 193 189 188 189 190 189 187 183 179 176 174 172 169 167 166 164 163 160 159 157
308 295 264 254 259 236 239 244 220 209 222 230 240 242 243 241 248 256 234 201 185 178 182 194 192 189 190 191 192 190 187 185 184 181 179 177 175 174 172 171 172 172 170
312 312 281 258 244 239 237 240 244 221 216 217 236 246 245 247 237 244 254 232 197 180 178 183 187 192 193 191 193 192 191 190 189 189 188 186 183 182 181 182 182 181 182
320 306 298 296 270 244 242 237 236 229 224 212 221 254 258 256 256 244 250 250 222 190 175 174 183 185 191 195 194 194 194 194 194 194 193 191 189 188 189 190 190 191 192
325 313 310 305 290 268 257 245 233 220 226 203 188 192 231 253 261 248 242 251 244 204 180 182 187 180 181 185 196 195 196 196 198 198 198 197 195 194 195 195 197 199 200
321 318 316 309 295 272 257 253 239 223 223 218 202 188 190 208 221 246 234 240 252 238 198 180 194 182 178 179 186 195 195 194 198 201 201 201 200 200 200 201 203 205 207
330 339 317 308 303 295 276 264 252 233 223 226 227 227 220 177 178 230 257 236 243 242 224 196 210 197 180 176 179 187 193 194 196 202 204 204 204 204 204 205 206 208 210
327 326 320 319 306 298 287 279 280 253 231 224 220 220 224 222 209 193 228 242 252 249 234 202 203 207 180 167 171 184 188 191 193 198 203 204 205 205 206 208 209 209 210
332 342 337 332 319 311 306 295 281 265 250 239 231 221 208 203 202 195 212 220 228 253 266 249 216 209 180 162 172 179 185 188 191 194 199 202 205 206 207 207 207 208 210
338 338 337 325 317 306 302 297 284 270 260 248 236 227 223 224 214 202 202 213 219 234 259 267 237 214 189 162 165 171 183 186 190 193 196 199 203 206 208 208 208 209 210
335 335 329 320 319 316 313 304 289 277 267 260 254 242 228 228 223 214 204 196 211 221 225 236 242 236 202 172 166 168 181 187 188 192 195 199 201 203 206 208 209 209 209
336 341 328 329 327 320 313 313 300 291 288 271 266 263 244 233 223 220 214 201 194 211 223 219 213 214 194 177 163 173 176 189 190 192 195 197 199 200 201 201 204 205 202
337 334 338 341 339 337 334 333 320 303 293 284 267 263 255 236 227 220 218 212 205 204 218 209 206 188 188 187 173 182 178 184 190 192 193 195 196 198 198 199 201 200 199
344 343 345 349 354 352 347 338 331 329 320 307 298 289 282 259 238 227 221 214 210 205 217 224 199 188 184 183 189 195 174 176 189 192 192 192 192 193 194 196 197 196 196
347 346 353 1 4 2 352 349 347 344 323 312 307 299 290 285 259 236 225 217 210 207 201 214 208 195 198 192 196 199 186 182 175 188 189 187 188 189 191 193 193 192 190
351 350 2 4 6 6 2 0 353 341 328 314 308 303 301 305 279 254 235 223 214 211 197 199 206 195 196 188 187 195 180 162 165 172 181 183 185 185 186 188 189 189 189
351 356 5 6 7 7 8 2 352 342 337 334 336 338 335 332 311 295 267 247 221 208 197 197 202 192 189 180 173 177 179 170 166 158 162 171 178 182 183 185 186 188 189
351 359 3 5 3 5 14 1 347 344 343 348 359 8 13 15 9 343 314 312 282 219 201 198 199 191 186 173 182 176 175 157 159 157 147 154 158 166 174 178 180 181 183
339 357 357 3 0 7 1 1 357 341 336 342 351 353 353 15 17 5 330 289 271 232 216 209 205 196 196 190 177 171 165 161 179 170 150 155 157 158 156 160 169 172 173
355 350 347 353 356 360 359 357 352 338 330 344 354 351 1 19 14 359 338 309 279 267 242 222 211 205 186 185 179 178 175 172 176 165 146 157 155 154 144 150 157 165 168
343 333 332 338 340 359 4 357 349 336 332 348 359 0 11 23 14 0 338 337 347 329 270 218 202 203 179 164 174 178 168 151 123 143 141 153 154 144 132 141 161 165 167
314 313 319 323 324 348 9 3 355 328 334 349 2 13 22 27 10 3 355 355 7 1 46 100 129 138 140 149 151 144 152 153 160 173 160 143 145 130 129 144 161 167 168
286 294 297 296 304 318 15 7 359 335 342 344 348 27 47 27 6 4 357 358 6 360 53 106 118 138 147 152 158 163 167 166 154 169 172 147 150 143 141 145 154 163 161
Height
1517 1517 1518 1519 1520 1522 1523 1525 1526 1528 1529 1530 1532 1534 1535 1537 1539 1539 1540 1542 1543 1543 1544 1545 1546 1547 1548 1550 1551 1553 1554 1556 1558 1560 1561 1563 1565 1566 1568 1569 1570 1572 1573
1514 1514 1515 1515 1516 1518 1519 1521 1522 1524 1526 1527 1529 1531 1532 1534 1536 1537 1538 1539 1540 1541 1542 1543 1544 1545 1547 1549 1550 1552 1554 1555 1557 1559 1561 1563 1564 1566 1568 1569 1570 1572 1573
1511 1511 1511 1512 1513 1515 1516 1517 1518 1520 1522 1523 1525 1527 1529 1531 1533 1534 1535 1536 1538 1539 1540 1541 1543 1544 1545 1547 1549 1551 1553 1555 1557 1559 1560 1562 1564 1566 1567 1569 1570 1571 1572
1508 1508 1508 1509 1510 1511 1512 1514 1515 1516 1518 1520 1521 1524 1525 1527 1529 1531 1533 1533 1535 1536 1538 1539 1541 1542 1544 1545 1547 1549 1551 1553 1555 1557 1559 1561 1563 1565 1566 1568 1569 1571 1572
1505 1505 1505 1506 1506 1507 1508 1510 1511 1513 1514 1516 1518 1520 1522 1523 1525 1527 1529 1531 1532 1533 1535 1537 1538 1540 1541 1543 1545 1547 1549 1551 1554 1556 1558 1560 1562 1564 1565 1567 1568 1570 1571
1502 1502 1502 1503 1503 1504 1505 1506 1507 1509 1511 1512 1514 1516 1518 1520 1521 1523 1525 1527 1529 1530 1532 1533 1535 1537 1539 1541 1543 1545 1547 1549 1552 1554 1556 1558 1560 1562 1564 1565 1567 1568 1570
1500 1499 1499 1500 1500 1501 1501 1502 1504 1505 1507 1509 1511 1512 1514 1515 1517 1519 1521 1523 1525 1527 1529 1530 1532 1534 1536 1538 1540 1542 1545 1547 1549 1552 1554 1556 1558 1560 1562 1564 1565 1567 1568
1497 1497 1497 1497 1497 1497 1498 1499 1500 1501 1503 1505 1507 1508 1509 1512 1512 1514 1517 1519 1521 1523 1525 1526 1528 1530 1533 1535 1537 1539 1542 1544 1547 1549 1551 1554 1556 1558 1560 1562 1563 1565 1566
1496 1495 1494 1494 1494 1495 1495 1496 1497 1498 1499 1501 1503 1505 1506 1506 1508 1510 1512 1515 1517 1519 1521 1523 1525 1527 1528 1531 1534 1536 1539 1541 1544 1546 1548 1551 1553 1555 1557 1559 1561 1562 1564
1494 1493 1492 1492 1492 1492 1492 1493 1494 1495 1496 1497 1499 1501 1503 1504 1505 1506 1508 1510 1512 1515 1517 1519 1521 1524 1526 1527 1530 1533 1535 1538 1540 1543 1545 1548 1550 1552 1554 1556 1558 1560 1561
1493 1492 1491 1490 1490 1490 1490 1491 1491 1491 1492 1493 1495 1497 1499 1500 1502 1503 1504 1506 1508 1510 1513 1515 1517 1520 1523 1524 1526 1529 1532 1534 1537 1539 1542 1544 1547 1549 1551 1553 1555 1557 1558
1492 1491 1489 1489 1488 1488 1488 1488 1488 1488 1489 1490 1491 1493 1494 1496 1497 1499 1500 1502 1503 1505 1508 1510 1513 1516 1519 1521 1522 1525 1528 1531 1533 1536 1538 1541 1543 1546 1548 1550 1552 1553 1555
1491 1489 1488 1487 1486 1486 1485 1485 1485 1485 1486 1486 1487 1488 1490 1492 1494 1495 1497 1498 1500 1501 1503 1505 1508 1511 1514 1516 1518 1521 1524 1527 1529 1532 1534 1537 1539 1542 1544 1546 1548 1550 1552
1490 1488 1487 1486 1485 1484 1484 1483 1483 1483 1483 1483 1484 1485 1486 1488 1489 1491 1493 1495 1496 1497 1499 1501 1503 1506 1509 1511 1513 1517 1520 1523 1525 1528 1530 1533 1535 1538 1540 1542 1544 1546 1548
1489 1488 1486 1485 1484 1483 1482 1481 1481 1480 1480 1480 1481 1481 1482 1483 1485 1487 1489 1490 1493 1493 1494 1496 1498 1500 1503 1506 1509 1512 1515 1518 1521 1524 1526 1529 1531 1534 1536 1538 1540 1542 1544
1489 1487 1486 1484 1483 1482 1481 1480 1479 1478 1478 1478 1478 1478 1479 1480 1481 1482 1484 1485 1487 1489 1490 1491 1494 1496 1499 1501 1504 1507 1510 1513 1516 1519 1522 1524 1527 1529 1532 1534 1536 1538 1540
1490 1488 1486 1484 1482 1481 1479 1478 1477 1477 1476 1476 1476 1476 1476 1476 1477 1478 1479 1481 1483 1484 1486 1488 1490 1492 1494 1496 1499 1501 1505 1508 1511 1514 1517 1520 1522 1525 1527 1529 1532 1534 1536
1490 1488 1486 1484 1482 1480 1479 1477 1476 1475 1475 1474 1474 1473 1473 1473 1473 1474 1475 1476 1478 1480 1482 1483 1486 1488 1490 1492 1494 1497 1500 1503 1505 1508 1512 1515 1517 1520 1522 1525 1527 1529 1531
1491 1488 1486 1484 1482 1480 1478 1477 1475 1474 1473 1473 1472 1471 1471 1471 1471 1471 1472 1473 1474 1476 1478 1480 1482 1484 1486 1488 1490 1493 1496 1498 1501 1504 1507 1510 1512 1515 1517 1520 1522 1524 1526
1491 1489 1487 1484 1482 1480 1478 1476 1475 1473 1473 1472 1471 1470 1469 1468 1468 1468 1469 1470 1471 1472 1474 1476 1478 1480 1482 1484 1486 1488 1491 1493 1496 1499 1502 1505 1508 1510 1513 1515 1517 1519 1521
1492 1489 1487 1485 1483 1481 1479 1477 1475 1473 1472 1471 1470 1469 1468 1467 1467 1467 1467 1467 1468 1469 1471 1472 1474 1476 1478 1480 1482 1484 1486 1489 1492 1495 1497 1500 1503 1505 1508 1510 1512 1514 1516
1492 1490 1488 1485 1483 1481 1480 1478 1476 1474 1472 1471 1470 1469 1468 1467 1466 1465 1465 1465 1466 1466 1468 1469 1471 1472 1474 1476 1478 1480 1482 1485 1487 1491 1493 1495 1498 1500 1502 1505 1507 1510 1512
1492 1490 1488 1486 1484 1482 1480 1478 1476 1474 1473 1471 1470 1469 1468 1467 1466 1465 1464 1464 1464 1464 1465 1467 1468 1469 1471 1472 1475 1476 1478 1481 1483 1486 1489 1491 1493 1496 1498 1500 1503 1506 1508
1492 1490 1488 1486 1484 1482 1480 1478 1476 1475 1473 1472 1470 1469 1468 1467 1465 1464 1464 1463 1463 1463 1463 1464 1465 1466 1468 1470 1471 1473 1475 1478 1481 1483 1486 1488 1490 1492 1494 1497 1500 1502 1504
1492 1490 1488 1486 1484 1482 1480 1479 1477 1475 1473 1472 1471 1469 1468 1466 1465 1464 1463 1462 1462 1462 1461 1462 1462 1464 1465 1467 1468 1470 1472 1474 1476 1479 1482 1484 1486 1489 1491 1494 1496 1498 1501
1492 1490 1488 1486 1484 1482 1480 1479 1477 1475 1473 1472 1470 1469 1468 1466 1465 1464 1463 1462 1461 1461 1460 1460 1461 1462 1464 1465 1466 1468 1469 1471 1473 1476 1478 1481 1482 1485 1488 1490 1492 1495 1497